Location: Arpaise
(41.0333°N, 14.7333°E)
Time: 00:36:04
(UTC+00:00)

Cosmos 1980 - Pass Details

Date: 05 July 2020
Orbit: 839 x 847 km, 71.0° (Epoch: 11 August)

Event Time Altitude Azimuth Distance (km) Brightness Sun altitude
Exits shadow 21:56:26 33° 229° (SW) 1,388 4.6 -24.3°
Maximum altitude 21:58:55 61° 296° (WNW) 949 4.0 -24.4°
Drops below altitude 10° 22:04:31 10° 17° (NNE) 2,463 6.9 -24.7°
Sets 22:07:01 0° 21° (NNE) 3,402 7.7 -24.8°
